Change the Weather History Date:

Friday, January 30, 2015

  Actual Average Record
Temperature  
Mean Temperature 65 °F 66 °F  
Max Temperature 76 °F 75 °F 87 °F (1991)
Min Temperature 54 °F 57 °F 35 °F (1966)
Degree Days  
Heating Degree Days 0 2  
Month to date heating degree days 27 86  
Since 1 July heating degree days 69 157  
Cooling Degree Days 0 4  
Month to date cooling degree days 164 102  
Year to date cooling degree days 164 102  
Growing Degree Days 15 (Base 50)    
Moisture  
Dew Point 50 °F    
Average Humidity 58    
Maximum Humidity 80    
Minimum Humidity 36    
Precipitation  
Precipitation 0.00 in 0.09 in 3.35 in (1926)
Month to date precipitation 1.05 3.04  
Year to date precipitation 1.05 3.04  
Snow  
Snow 0.00 in - - ()
Month to date snowfall 0.0  
Since 1 July snowfall 0.0  
Snow Depth 0.00 in    
Sea Level Pressure  
Sea Level Pressure 30.16 in    
Wind  
Wind Speed 7 mph (WNW)    
Max Wind Speed 16 mph    
Max Gust Speed 21 mph    
Visibility 10 miles    
Events      
T = Trace of Precipitation, MM = Missing Value Source: NWS Daily Summary

Daily Weather History Graph

Daily Weather History Graph

Search for Another Location

Airport or City:

Trip Planner

Search our weather history database for the weather conditions in past years. The results will help you decide how hot, cold, wet, or windy it might be!

Date:

Astronomy

Jan. 30, 2015 Rise Set
Actual Time 7:06 AM EST 6:01 PM EST
Civil Twilight 6:42 AM EST 6:25 PM EST
Nautical Twilight 6:14 AM EST 6:53 PM EST
Astronomical Twilight 5:46 AM EST 7:20 PM EST
Moon 2:38 PM EST (1/30) 3:31 AM EST (1/30)
Length of Visible Light 11h 43m
Length of Day
10h 54m
Waxing Gibbous, 84% of the Moon is Illuminated
Jan 30
Waxing Gibbous
Feb 3
Full
Feb 11
Last Quarter
Feb 18
New
Feb 25
First Quarter

Hourly Weather History & Observations

Time (EST) Temp. Dew Point Humidity Pressure Visibility Wind Dir Wind Speed Gust Speed Precip Events Conditions
12:53 AM 61.0 °F 51.1 °F 70% 30.19 in 10.0 mi Calm Calm - N/A   Overcast
1:53 AM 61.0 °F 51.1 °F 70% 30.19 in 10.0 mi North 3.5 mph - N/A   Mostly Cloudy
2:53 AM 60.1 °F 52.0 °F 75% 30.17 in 10.0 mi WNW 3.5 mph - N/A   Overcast
3:53 AM 59.0 °F 51.1 °F 75% 30.17 in 10.0 mi NW 4.6 mph - N/A   Mostly Cloudy
4:53 AM 55.0 °F 48.9 °F 80% 30.15 in 10.0 mi NW 4.6 mph - N/A   Partly Cloudy
5:53 AM 55.9 °F 48.9 °F 77% 30.17 in 10.0 mi NW 3.5 mph - N/A   Scattered Clouds
6:53 AM 55.9 °F 48.9 °F 77% 30.17 in 10.0 mi NW 4.6 mph - N/A   Partly Cloudy
7:53 AM 57.0 °F 51.1 °F 81% 30.19 in 10.0 mi NW 5.8 mph - N/A   Partly Cloudy
8:53 AM 63.0 °F 53.1 °F 70% 30.21 in 10.0 mi NW 9.2 mph - N/A   Partly Cloudy
9:53 AM 66.9 °F 53.1 °F 61% 30.22 in 10.0 mi WNW 6.9 mph - N/A   Scattered Clouds
10:53 AM 71.6 °F 51.8 °F 50% 30.22 in 10.0 mi NW 10.4 mph - N/A   Partly Cloudy
11:53 AM 72.0 °F 51.1 °F 48% 30.19 in 10.0 mi West 12.7 mph - N/A   Partly Cloudy
12:53 PM 73.9 °F 51.1 °F 45% 30.15 in 10.0 mi West 11.5 mph 17.3 mph N/A   Partly Cloudy
1:53 PM 75.9 °F 48.0 °F 37% 30.12 in 10.0 mi WNW 13.8 mph 20.7 mph N/A   Scattered Clouds
2:53 PM 75.0 °F 46.0 °F 36% 30.12 in 10.0 mi WNW 12.7 mph 20.7 mph N/A   Scattered Clouds
3:53 PM 75.0 °F 46.9 °F 37% 30.10 in 10.0 mi WNW 9.2 mph - N/A   Mostly Cloudy
4:53 PM 73.0 °F 48.0 °F 41% 30.12 in 10.0 mi WNW 9.2 mph - N/A   Mostly Cloudy
5:53 PM 69.1 °F 48.0 °F 47% 30.13 in 10.0 mi WNW 5.8 mph - N/A   Mostly Cloudy
6:53 PM 69.1 °F 48.9 °F 49% 30.13 in 10.0 mi WSW 4.6 mph - N/A   Mostly Cloudy
7:53 PM 66.9 °F 48.9 °F 52% 30.14 in 10.0 mi WSW 3.5 mph - N/A   Scattered Clouds
8:53 PM 64.9 °F 50.0 °F 58% 30.14 in 10.0 mi Calm Calm - N/A   Mostly Cloudy
9:53 PM 63.0 °F 51.1 °F 65% 30.16 in 10.0 mi NW 3.5 mph - N/A   Mostly Cloudy
10:53 PM 64.0 °F 57.0 °F 78% 30.16 in 10.0 mi NNW 9.2 mph - N/A   Mostly Cloudy
11:53 PM 64.0 °F 57.0 °F 78% 30.16 in 10.0 mi NNW 8.1 mph - N/A   Mostly Cloudy